Username:
Password:
This is my DDRecall account: 
Remember Me: 



Stay On Sync - WOOKIE WOOKIE

WOOKIE WOOKIE - Heavy

Foot Rating (Pre-X): 8, (X): 11

Steps: 333, Freezes: 8, Shocks: 0

1st2nd3rd4th5thDDRMAXDDRMAX2ExtremeSupernovaSupernova 2XX2X3EuromixEuromix 2Solo 2000


1ranatalus 682 / 682 (0)2008-10-22 20:34:25
2dr.d 682 / 682 (0)2008-10-23 08:33:33
3Dark Ptt 682 / 682 (0)2008-10-23 10:43:43
4Goemon! 682 / 682 (0)2008-10-23 11:06:41
5Justin "Salty Jamalty" W. Bader 682 / 682 (0)2008-10-23 11:23:30
6Daaanty 682 / 682 (0)2008-10-23 12:11:23
7AndyFreak457 682 / 682 (0)2008-10-23 12:20:50
8El Estepper =D 682 / 682 (0)2008-10-23 15:47:51
9Karl 682 / 682 (0)2008-10-23 16:34:57
10riodo 682 / 682 (0)2008-10-23 18:18:43
11Marco Polo 682 / 682 (0)2008-10-23 21:59:17
12hf230 682 / 682 (0)2008-10-24 07:20:30
13[team bpm jodio] ronx 682 / 682 (0)2008-10-24 10:57:47
14Nickolas "Electrical Socket Johnson" J. Mariani 682 / 682 (0)2008-10-24 13:26:19
15Boochypa 682 / 682 (0)2008-10-24 14:03:39
16DJ Sterf 682 / 682 (0)2008-10-24 15:00:24
17CoreyBlaze 682 / 682 (0)2008-10-24 21:10:35
18Romanedge 682 / 682 (0)2008-10-25 01:39:30
19JJSz 682 / 682 (0)2008-10-26 03:28:59
20kalamari219 682 / 682 (0)2008-10-27 09:06:18
21daandrew19 682 / 682 (0)2008-10-27 10:18:42
22CartoonHero 682 / 682 (0)2008-10-28 01:32:11
23Milo234 682 / 682 (0)2008-10-28 16:21:54
24drano 682 / 682 (0)2008-10-28 17:36:37
25TEEX 682 / 682 (0)2008-11-01 01:42:28
26Skeeter 682 / 682 (0)2008-11-01 21:01:06
27tomtard 682 / 682 (0)2008-11-02 16:33:56
28AKK_g.m.d. 682 / 682 (0)2008-11-03 04:29:05
29EVAAAN 682 / 682 (0)2008-11-03 15:16:30
30XenoSG 682 / 682 (0)2008-11-04 00:45:32
31K-Stro 682 / 682 (0)2008-11-13 22:24:26
32MegamanX 682 / 682 (0)2008-11-13 23:31:34
33Leon Twix 682 / 682 (0)2008-11-19 19:45:38
34BlAcK MAGIK 682 / 682 (0)2008-12-10 17:20:54
35xXCloudXx 682 / 682 (0)2008-12-27 10:36:09
36Dancetyger 682 / 682 (0)2009-01-01 19:49:22
37Space_Cat 682 / 682 (0)2009-01-03 08:46:30
38Pink Dinosaur 682 / 682 (0)2009-01-05 02:58:48
39superkirby7 682 / 682 (0)2009-01-05 23:24:13
40Jon owns 3x solo! 682 / 682 (0)2009-01-27 16:09:42
41nnnnnevets 682 / 682 (0)2009-02-25 17:52:20
42Sj 682 / 682 (0)2009-03-01 01:01:58
43Fep+J 682 / 682 (0)2009-03-01 13:31:01
44Wulfgearr 682 / 682 (0)2009-03-23 21:03:50
45admstyles 682 / 682 (0)2009-04-06 02:22:13
46Rojo-Ky 682 / 682 (0)2009-05-02 18:56:36
47sleeve 682 / 682 (0)2009-05-04 13:51:13
48papayasown 682 / 682 (0)2009-05-12 09:19:46
49[Pad Perfects] red_dragon 682 / 682 (0)2009-06-02 01:14:45
50damienpa 682 / 682 (0)2009-06-05 23:40:33
51MusicalRose 682 / 682 (0)2009-06-23 20:39:22
52TigA 682 / 682 (0)2009-08-01 01:19:33
53Chikito^2 682 / 682 (0)2009-08-08 04:01:39
54DBFriday 682 / 682 (0)2009-08-16 18:00:13
55sourpatch 682 / 682 (0)2009-08-25 04:47:44
56[ICNH] 682 / 682 (0)2009-09-06 18:47:37
57Jimbo22291 682 / 682 (0)2009-09-16 00:06:12
58Cynic 682 / 682 (0)2009-11-01 12:17:16
59Sword 682 / 682 (0)2010-03-18 22:02:02
60Phoenix_Skyy 682 / 682 (0)2010-06-17 01:20:48
61breakdownpyk 682 / 682 (0)2010-07-22 02:17:59
62-Team PAP- 3X 682 / 682 (0)2010-08-27 15:55:01
63Brazoliange 682 / 682 (0)2011-06-14 14:43:28
64SDN.DiscoBobbyPARANOiA 682 / 682 (0)2012-01-11 23:31:00
65Regulator 682 / 682 (0)2012-03-02 22:19:52
66d00d 682 / 682 (0)2012-08-27 10:58:13
672ktukan 682 / 682 (0)2012-09-18 22:01:08
68NChiko 682 / 682 (0)2012-11-13 15:29:34
69Ghaleon 682 / 682 (0)2013-01-27 04:33:07
70ddrlizyand eddie 682 / 682 (0)2013-02-12 11:34:20
71Boxy 682 / 682 (0)2013-02-22 12:47:07
72godai 682 / 682 (0)2013-07-23 13:42:55
73Faker13 682 / 682 (0)2015-08-26 16:06:58
74Mapo 682 / 682 (0)2016-01-04 15:06:41
75Sisco 681 / 682 (1)2008-10-23 07:22:08
76John Desire 681 / 682 (1)2008-10-23 08:11:25
77[MIH] Shadowcol 681 / 682 (1)2008-10-23 14:54:49
78Big B 681 / 682 (1)2008-10-23 22:51:15
79HSV.TorAy 681 / 682 (1)2008-11-12 18:19:08
80Zachary"DA BUSSINESS/BIG CITY SLIDER"Joseph Bader 681 / 682 (1)2008-12-21 21:40:47
81Flashfire 681 / 682 (1)2009-01-29 16:43:32
82NWFL.Jope 681 / 682 (1)2009-02-19 13:53:42
83ph0en1x 681 / 682 (1)2009-06-20 21:16:47
84MixMastaPJ 681 / 682 (1)2009-07-17 15:28:00
85jomy82 681 / 682 (1)2009-09-18 23:17:34
86discovigilante 681 / 682 (1)2010-03-08 12:12:35
87SpenCity 681 / 682 (1)2010-05-15 10:19:16
88Frozenchao 681 / 682 (1)2013-04-05 10:16:52
89aznator 680 / 682 (2)2008-10-24 13:53:54
90GameworksScrub 680 / 682 (2)2008-10-24 18:29:59
91J-On 680 / 682 (2)2008-11-03 02:33:02
92jack_bauer 680 / 682 (2)2008-11-17 19:10:21
93Sheenaza 680 / 682 (2)2009-02-02 13:12:33
94AllusiveGold 680 / 682 (2)2009-07-14 23:46:19
95TyGeR 680 / 682 (2)2009-10-27 20:20:54
96Overgate-7152 680 / 682 (2)2010-01-21 17:06:32
97Cerecel 680 / 682 (2)2010-05-11 18:53:54
98lildrchris25 680 / 682 (2)2012-07-16 21:15:26
99Kristoph 679 / 682 (3)2008-10-23 06:31:32
100Keef 679 / 682 (3)2008-10-23 16:27:22
101Tigra 679 / 682 (3)2008-10-29 04:55:36
102Belon 679 / 682 (3)2008-12-18 00:51:58
103Milodiablo 679 / 682 (3)2009-09-23 22:04:20
104HotJava 679 / 682 (3)2010-02-04 13:41:57
105Slayer 679 / 682 (3)2011-12-29 16:43:00
106-dark-xuxa 678 / 682 (4)2008-10-23 11:00:46
107Holland 678 / 682 (4)2008-10-23 16:58:29
108OshawaACE 678 / 682 (4)2008-11-14 11:57:11
109thao 678 / 682 (4)2009-01-13 16:37:59
110Lenni 678 / 682 (4)2009-06-11 21:58:00
111Samus Hikaru 678 / 682 (4)2009-06-21 11:53:03
112TGRP - Neon Kel 678 / 682 (4)2009-08-08 16:51:44
113DANthaMAN 678 / 682 (4)2010-08-17 02:26:43
114--muffinz.jotranny.bitsaglass-- 677 / 682 (5)2008-10-28 16:22:53
115Niggadelic 677 / 682 (5)2009-01-01 11:13:16
116Kira 677 / 682 (5)2009-03-08 06:07:56
117IHYD.Tiza 677 / 682 (5)2009-05-11 17:04:18
118Flayd 677 / 682 (5)2012-08-08 16:07:45
119MaverickMechanic 676 / 682 (6)2008-10-23 14:48:47
120NWFL.Bumm 676 / 682 (6)2008-10-29 13:12:23
121Chubaka 676 / 682 (6)2011-01-03 16:29:24
122SJES! (exclamation point) 675 / 682 (7)2008-11-15 19:48:23
123[TG]Fade 675 / 682 (7)2008-11-27 22:17:03
124King of Light 675 / 682 (7)2009-04-09 10:26:14
125TGRP.DJay Eckoman 675 / 682 (7)2010-03-25 15:34:21
126maxx_revolution 674 / 682 (8)2008-10-23 08:47:34
127BBM 674 / 682 (8)2008-10-23 16:27:54
128lunchbox 674 / 682 (8)2008-10-27 19:26:37
129Shoes290 674 / 682 (8)2008-10-28 13:20:35
130PA System 674 / 682 (8)2008-11-10 01:37:12
131marphoria 674 / 682 (8)2008-11-29 23:51:44
132SuperNOVA Gian 674 / 682 (8)2008-12-06 21:13:57
133mrg06 674 / 682 (8)2009-01-30 01:10:25
134DDRGirl0105 674 / 682 (8)2009-04-01 22:03:13
135Amalgamayne 674 / 682 (8)2009-08-07 21:13:33
136Kev NOLA 674 / 682 (8)2009-09-29 21:01:42
137MS.Moonlight-Dumarys8 674 / 682 (8)2010-02-17 23:08:07
138Juliusplex 674 / 682 (8)2010-03-24 11:13:11
139Souji 674 / 682 (8)2010-09-12 17:51:02
140Oraco 674 / 682 (8)2011-12-25 21:17:39
141Hikaroo 673 / 682 (9)2008-11-11 17:07:03
142MixMasterLar 673 / 682 (9)2013-08-08 13:09:45
143melink14 672 / 682 (10)2008-10-24 02:14:52
144Wolfman2000 672 / 682 (10)2011-09-27 20:37:00
145zAkAtAk 672 / 682 (10)2013-02-08 10:50:42
146blackcat24 670 / 682 (12)2009-03-07 18:22:05
147x777x 670 / 682 (12)2009-05-21 07:07:02
148Poochy 670 / 682 (12)2009-11-07 20:15:47
149OMG Paige! 670 / 682 (12)2011-10-30 16:26:53
150Ninevolt 669 / 682 (13)2008-10-26 03:48:04
151CrzyLgz 669 / 682 (13)2009-03-03 11:35:25
152504SKA 669 / 682 (13)2009-08-20 01:59:21
153jacob_foster 669 / 682 (13)2009-12-06 00:49:46
154feature 668 / 682 (14)2009-11-15 18:44:18
155Old Man Luis 668 / 682 (14)2010-03-13 13:34:37
156wakassjak 663 / 682 (19)2011-01-06 15:40:47
157Takashaz 659 / 682 (23)2008-11-02 01:59:50
158enjoi_ 659 / 682 (23)2011-04-09 18:18:39
159ADavalosJR 655 / 682 (27)2009-04-27 00:18:11
160ver2 655 / 682 (27)2011-06-11 20:54:38
161IXAM [JOEGELLI] 652 / 682 (30)2008-10-23 18:02:14
162wschmrdr 652 / 682 (30)2008-10-23 22:19:19
163Slippy [TSPS!?] 652 / 682 (30)2008-10-24 03:25:25
164subliminalATFTB 650 / 682 (32)2009-04-27 10:36:01
165Juggleboy360 644 / 682 (38)2008-12-17 00:55:57
166[mixi] 641 / 682 (41)2009-10-11 01:01:43
167Ho 640 / 682 (42)2011-12-01 00:23:53
168megabeatmanmania 639 / 682 (43)2009-06-16 01:28:12
169Duke_Nukem02 637 / 682 (45)2008-12-17 15:01:52
170luckyneko 629 / 682 (53)2009-01-19 16:02:16
171wgf_Naruto 613 / 682 (69)2011-11-10 11:55:15
172alwowpal 598 / 682 (84)2014-05-28 04:05:56
173guariche 597 / 682 (85)2009-06-15 05:24:15
174xiii_stephan 593 / 682 (89)2009-05-19 08:34:39
175PticaKiwi 561 / 682 (121)2010-04-21 07:21:06
176Blair Alane 476 / 682 (206)2011-10-20 15:26:23

Home |  Forum |  Syncopedia |  User List |  Report Bug |  Contact Us